STARLINK-4497 (53411 NORAD) Tracking and Keplerian Element Data

This shows tracking and keplerian element data for the satellite.

Feedback or suggestion? Click here.




ElementValue
Catalog53411
NameSTARLINK-4497
Epoch Orbit797
Epoch Day270.25001157
Epoch Year2022
RAAN11.3986
Inclination53.2164
Eccentricity0.0001539
Argument of Perigee42.2128
Mean Anonmoly221.6
Mean Motion15.49873082
Decay Rate0.00043139
L11 53411U 22097Z 22270.25001157 .00043139 00000+0 76415-3 0 9993
L22 53411 53.2164 11.3986 0001539 42.2128 221.6000 15.49873082 7973

Live tracking and technical data element details for STARLINK-4497 (NORAD 53411). STARLINK-4497 can be tracked NOW for your location showing map with azimuth and elevation plus other details from your city location.

Track the satellite on the map from your city or location and see movement details for azimuth, elevation, latitude, longitude, range, height, and movement on the map or in text.







IsCatalogInMostPopularTable: catalog: 53411, numindb: 2
Update: records affected: 1



GetName: 53411 STARLINK-4497

Hit Count: updated at: Wed, 28 Sep 2022 21:33:27 GMT